Probability
3 10 42 45 42 45 45 45 48 45 48 45 45 42 42 35 32 35 39 35 29 32 32 35 29 32 32 32 32 29 29 26 26 23 19 16 16 10 10 13 13 3 10
3 10 39 45 45 45 45 42 39 39 42 42 39 39 39 35 32 29 35 29 26 26 29 26 26 32 32 32 29 29 26 23 29 26 23 16 13 13 13 10 13 0 6
6 19 29 45 45 45 42 42 39 39 39 35 35 35 35 32 32 32 26 29 26 26 26 19 26 26 29 26 29 26 23 23 19 16 13 0 6 10 10 10 13 6 3
6 19 32 39 42 45 42 42 39 35 32 32 35 35 32 32 32 29 26 29 26 23 23 16 16 19 23 29 29 29 23 19 16 13 0 0 0 6 10 10 10 10 10
10 16 26 32 35 35 39 35 32 32 32 35 32 35 32 32 32 29 26 23 23 19 16 19 16 16 16 23 26 26 26 16 13 6 0 0 0 6 10 10 10 10 13
10 19 26 32 35 35 29 29 26 26 26 32 39 35 32 29 29 26 16 16 16 16 16 16 19 16 19 19 19 23 23 16 10 0 0 0 0 10 10 10 10 10 10
13 19 23 32 35 35 29 29 26 23 26 26 29 32 29 29 29 19 16 13 13 13 13 16 16 19 19 19 19 16 6 3 0 0 0 0 0 6 10 10 6 6 3
13 13 26 29 29 32 29 29 19 19 23 26 23 19 23 29 29 19 13 13 13 16 13 13 16 16 16 16 10 13 6 0 0 0 0 0 0 6 10 10 13 13 10
10 10 19 23 23 23 19 19 16 19 19 26 23 23 19 16 16 16 13 13 13 10 13 16 13 16 16 16 10 13 3 0 0 0 0 0 0 10 13 13 13 6 10
10 13 13 13 13 13 16 13 13 13 13 16 16 10 6 10 10 6 13 13 13 13 13 16 13 10 13 13 10 3 3 0 0 0 0 0 0 10 10 10 6 6 6
10 10 10 10 13 13 10 10 10 13 10 10 6 0 0 0 0 0 0 3 13 13 13 13 10 10 10 6 0 0 0 0 0 0 0 0 0 6 6 10 10 6 6
10 10 6 6 10 6 6 6 6 6 3 3 3 0 0 0 0 0 0 0 6 6 3 6 3 6 3 0 0 0 0 0 0 0 0 0 0 3 13 13 10 6 6
6 10 6 6 3 6 6 3 0 3 3 0 0 0 0 0 0 0 0 0 0 0 0 0 0 0 0 0 0 0 0 0 0 0 0 0 0 0 13 13 10 10 6
6 10 3 3 3 3 6 3 0 0 0 0 0 0 0 0 0 0 0 0 0 0 0 0 0 0 0 0 0 0 0 0 0 0 0 0 0 0 6 10 13 10 6
6 6 0 0 0 3 0 3 0 0 0 0 0 0 0 0 0 0 0 0 0 0 0 0 0 0 0 0 0 0 0 0 0 0 0 0 0 0 3 6 10 10 3
0 6 0 0 0 0 0 0 0 0 0 0 0 0 0 0 0 0 0 0 0 0 0 0 0 0 0 0 0 0 0 0 0 0 0 0 0 0 0 3 6 6 3
0 0 0 0 0 0 0 0 0 0 0 0 0 0 0 0 0 0 0 0 0 0 0 0 0 0 0 0 0 0 0 0 0 0 0 0 0 0 0 0 0 3 3
0 0 0 0 0 0 0 0 0 0 0 0 0 0 0 0 0 0 0 0 0 0 0 0 0 0 0 0 0 0 0 0 0 0 0 0 0 0 0 0 0 3 6
0 0 0 0 0 0 0 0 0 0 0 0 0 0 0 0 0 0 0 0 0 0 0 0 0 0 0 0 0 0 0 0 0 0 0 0 0 0 0 0 0 0 0
0 0 0 0 0 0 0 0 0 0 0 0 0 0 0 0 0 0 0 0 0 0 0 0 0 0 0 0 0 0 0 0 0 0 0 0 0 0 0 0 0 0 0
0 3 0 0 0 0 0 0 0 0 0 0 0 0 0 0 0 0 0 0 0 0 0 0 0 0 0 0 0 0 0 0 0 0 0 0 0 0 0 0 0 0 0
0 0 0 0 0 0 0 0 0 0 0 0 0 0 0 0 0 0 0 0 0 0 0 0 0 0 0 0 0 0 0 0 0 0 0 0 0 0 0 0 0 0 0
0 0 0 0 0 0 0 0 0 0 0 0 0 0 0 0 0 0 0 0 0 0 0 0 0 0 0 0 0 0 0 0 0 0 0 0 0 0 0 0 0 0 0
0 0 0 0 0 0 3 0 0 0 0 0 0 0 0 0 0 0 0 0 0 0 0 0 0 0 0 0 0 0 0 0 0 0 0 0 0 0 0 0 0 0 0
0 0 0 0 0 0 3 3 0 0 0 0 0 0 0 0 0 0 0 0 0 0 0 0 0 0 0 0 0 0 0 0 0 0 0 0 0 0 0 0 0 0 0
0 0 0 0 0 0 0 0 0 0 0 0 0 0 0 0 0 0 0 0 0 0 0 0 0 0 0 0 0 0 0 0 0 0 0 0 0 0 0 0 0 0 0
Height
5835 5835 5836 5837 5838 5839 5840 5840 5841 5842 5843 5843 5844 5845 5845 5846 5847 5847 5848 5848 5849 5849 5850 5850 5850 5851 5852 5852 5853 5853 5853 5854 5854 5854 5855 5855 5855 5855 5855 5856 5856 5856 5856
5831 5832 5833 5834 5835 5836 5837 5837 5838 5839 5840 5841 5842 5842 5843 5844 5844 5845 5846 5846 5846 5847 5847 5848 5848 5849 5849 5850 5850 5851 5851 5852 5852 5852 5853 5853 5853 5853 5854 5854 5854 5854 5854
5827 5829 5829 5830 5832 5832 5833 5834 5835 5836 5837 5838 5838 5839 5840 5841 5841 5842 5843 5843 5843 5844 5844 5845 5845 5846 5846 5847 5848 5848 5849 5849 5849 5850 5850 5850 5851 5851 5851 5851 5852 5852 5852
5823 5825 5825 5826 5828 5829 5830 5831 5832 5833 5833 5834 5835 5836 5837 5837 5838 5839 5839 5840 5840 5840 5841 5841 5842 5843 5843 5844 5844 5845 5846 5846 5846 5847 5847 5848 5848 5848 5848 5849 5849 5849 5849
5819 5820 5821 5822 5823 5825 5826 5827 5828 5829 5830 5830 5831 5832 5833 5833 5834 5835 5836 5836 5836 5837 5837 5838 5838 5839 5839 5840 5841 5841 5842 5843 5843 5844 5844 5844 5845 5845 5845 5845 5846 5846 5846
5814 5815 5817 5818 5819 5820 5821 5822 5823 5824 5825 5826 5827 5828 5828 5829 5830 5831 5831 5832 5832 5832 5833 5833 5834 5835 5835 5836 5837 5837 5838 5839 5840 5840 5841 5841 5841 5842 5842 5842 5842 5842 5842
5809 5810 5811 5812 5813 5815 5816 5817 5818 5819 5820 5821 5822 5823 5823 5824 5825 5826 5826 5827 5828 5828 5828 5829 5830 5830 5831 5832 5832 5833 5834 5835 5835 5836 5837 5837 5837 5838 5838 5838 5838 5838 5839
5803 5804 5805 5806 5807 5809 5810 5811 5812 5813 5814 5815 5816 5817 5818 5819 5820 5820 5821 5822 5823 5823 5823 5824 5825 5825 5826 5827 5828 5828 5829 5830 5831 5832 5832 5833 5833 5833 5833 5834 5834 5834 5834
5796 5797 5798 5799 5801 5802 5803 5804 5806 5807 5808 5809 5810 5811 5812 5813 5813 5814 5815 5816 5817 5817 5818 5819 5820 5820 5821 5822 5822 5823 5824 5825 5826 5826 5827 5828 5828 5829 5829 5829 5829 5829 5829
5789 5790 5791 5792 5793 5795 5796 5797 5799 5800 5801 5802 5803 5804 5805 5806 5807 5808 5808 5809 5810 5811 5812 5813 5814 5815 5815 5816 5817 5817 5818 5819 5820 5821 5821 5822 5823 5823 5823 5824 5824 5824 5824
5781 5782 5783 5784 5785 5787 5788 5790 5791 5792 5793 5794 5796 5797 5798 5799 5800 5801 5801 5802 5803 5804 5805 5806 5807 5808 5809 5810 5811 5811 5812 5813 5814 5815 5815 5816 5816 5817 5817 5818 5818 5818 5818
5773 5774 5775 5776 5777 5779 5780 5781 5783 5784 5785 5786 5787 5789 5790 5791 5792 5793 5794 5795 5795 5797 5798 5798 5799 5800 5801 5803 5804 5804 5805 5806 5806 5808 5808 5809 5809 5810 5810 5811 5811 5812 5812
5765 5766 5767 5768 5769 5770 5772 5773 5774 5775 5776 5777 5778 5780 5781 5782 5783 5784 5785 5786 5787 5788 5789 5790 5791 5792 5793 5794 5795 5796 5797 5798 5799 5800 5800 5801 5801 5802 5803 5803 5804 5804 5805
5756 5758 5759 5760 5761 5762 5763 5764 5765 5766 5767 5768 5769 5770 5771 5773 5774 5775 5776 5777 5777 5778 5779 5781 5782 5783 5784 5785 5786 5787 5788 5789 5790 5791 5792 5792 5793 5794 5794 5795 5796 5796 5797
5747 5749 5750 5751 5752 5753 5754 5755 5756 5757 5758 5758 5759 5760 5761 5762 5763 5764 5765 5766 5767 5768 5769 5770 5771 5772 5774 5775 5776 5777 5778 5779 5781 5782 5783 5784 5784 5785 5785 5786 5787 5787 5788
5738 5740 5741 5742 5743 5744 5745 5746 5747 5748 5748 5749 5749 5750 5750 5751 5752 5753 5754 5755 5756 5757 5758 5759 5760 5761 5762 5763 5765 5766 5768 5769 5770 5772 5773 5774 5775 5775 5776 5776 5777 5778 5778
5729 5730 5732 5733 5734 5735 5736 5737 5738 5738 5739 5739 5739 5739 5739 5740 5740 5741 5742 5743 5744 5745 5746 5748 5749 5750 5751 5752 5753 5755 5756 5758 5760 5761 5762 5763 5764 5765 5765 5766 5767 5768 5768
5719 5720 5722 5723 5724 5725 5726 5727 5728 5728 5729 5729 5728 5729 5729 5729 5729 5729 5730 5731 5732 5733 5734 5736 5737 5738 5738 5739 5741 5743 5744 5746 5748 5750 5751 5752 5753 5754 5755 5756 5756 5757 5757
5709 5710 5712 5713 5714 5715 5716 5717 5717 5718 5718 5718 5718 5718 5718 5718 5718 5718 5718 5719 5719 5720 5721 5723 5724 5725 5726 5727 5728 5730 5732 5734 5736 5738 5740 5741 5742 5743 5744 5745 5745 5746 5746
5699 5700 5701 5702 5703 5704 5705 5706 5706 5707 5707 5708 5707 5707 5707 5707 5706 5706 5707 5707 5707 5708 5709 5710 5711 5712 5713 5714 5716 5717 5720 5722 5723 5725 5727 5729 5730 5732 5732 5733 5735 5735 5735
5689 5690 5691 5692 5692 5693 5694 5695 5696 5696 5697 5697 5697 5696 5696 5695 5695 5695 5695 5695 5695 5695 5696 5697 5698 5699 5700 5701 5703 5704 5707 5709 5710 5712 5714 5716 5718 5720 5721 5722 5723 5724 5724
5679 5680 5680 5681 5681 5682 5683 5684 5685 5685 5685 5686 5685 5685 5684 5684 5683 5683 5683 5682 5682 5683 5683 5684 5685 5686 5687 5688 5689 5690 5694 5697 5698 5700 5702 5704 5706 5707 5709 5710 5711 5712 5712
5669 5669 5670 5670 5670 5671 5671 5672 5673 5673 5674 5674 5674 5674 5673 5672 5671 5671 5670 5669 5669 5670 5670 5671 5672 5673 5674 5676 5676 5677 5680 5683 5687 5690 5690 5692 5694 5695 5696 5698 5698 5699 5699
5658 5659 5659 5659 5659 5659 5659 5660 5661 5661 5662 5663 5662 5662 5661 5660 5659 5658 5657 5656 5656 5657 5657 5658 5659 5660 5662 5664 5664 5665 5667 5670 5673 5677 5680 5681 5682 5683 5684 5685 5686 5687 5686
5648 5648 5649 5649 5649 5649 5648 5649 5649 5649 5650 5650 5649 5649 5648 5647 5646 5645 5644 5644 5644 5644 5645 5646 5647 5649 5650 5652 5653 5654 5656 5657 5659 5662 5666 5669 5670 5671 5671 5672 5673 5674 5674
5638 5638 5638 5639 5638 5638 5638 5637 5638 5638 5638 5637 5637 5636 5636 5635 5634 5632 5631 5631 5632 5633 5635 5636 5637 5638 5639 5640 5641 5642 5644 5646 5647 5648 5651 5654 5656 5659 5659 5660 5660 5661 5661
Wind_Speed
16 15 15 15 15 14 13 13 13 13 12 12 12 11 11 11 11 11 11 12 12 12 12 12 12 11 11 11 11 11 10 9 9 9 9 9 8 8 8 8 8 8 8
18 17 17 17 17 16 15 15 14 14 14 13 13 13 13 13 12 13 13 13 13 13 13 13 13 13 13 13 12 12 12 11 11 10 10 10 10 9 9 9 9 10 10
19 19 18 19 19 18 17 17 16 16 15 15 15 15 15 15 15 15 15 15 15 15 15 15 15 15 14 14 14 14 13 13 12 12 12 12 12 11 11 11 11 11 11
21 21 20 20 20 20 20 19 19 18 17 17 17 17 17 17 17 17 17 17 17 16 16 16 16 16 16 16 15 15 15 14 14 14 13 13 13 13 13 12 12 13 13
22 22 22 22 22 22 22 21 21 20 20 19 19 19 19 19 19 19 19 19 19 18 18 18 18 18 18 17 17 17 17 16 16 16 15 15 15 14 14 14 13 14 14
25 25 24 24 24 24 23 23 23 22 22 22 22 21 21 21 21 21 21 21 21 20 20 20 20 20 20 20 19 19 19 18 18 17 17 17 17 16 16 16 16 15 15
27 27 27 27 26 26 26 25 25 25 25 24 24 24 24 23 23 23 23 23 23 23 22 21 21 21 21 21 20 20 20 20 20 19 19 19 18 18 18 18 18 18 17
28 29 29 29 28 28 28 27 27 27 27 26 26 26 26 26 26 26 25 25 25 24 24 23 22 22 22 22 22 21 21 21 21 21 20 20 20 20 19 19 19 19 19
31 32 31 31 31 30 30 30 29 29 29 29 29 28 28 28 28 28 27 27 27 26 25 25 24 24 23 23 24 24 24 24 24 23 23 22 22 22 21 21 21 21 21
33 33 33 33 33 33 32 32 31 32 32 32 32 31 30 30 30 30 30 29 29 28 28 27 27 27 26 25 25 26 26 26 26 26 25 25 25 25 24 24 23 23 23
35 34 35 35 35 35 35 34 34 34 34 35 34 34 33 33 32 32 32 32 32 31 31 30 30 29 29 28 28 28 28 28 29 28 28 28 28 27 27 26 26 26 25
36 36 36 36 36 36 36 36 36 36 36 37 37 36 36 35 35 35 35 35 34 34 34 33 33 32 32 31 31 31 31 30 30 31 30 31 30 30 29 28 28 28 28
36 36 36 36 36 37 37 37 37 37 38 39 39 39 38 38 38 38 37 38 38 37 37 36 36 36 35 35 34 34 34 34 33 32 32 33 33 33 32 31 31 31 30
37 37 36 36 37 37 37 37 38 38 38 39 40 41 41 41 41 41 40 40 40 40 39 39 39 39 39 38 38 38 38 37 37 36 35 35 35 35 35 34 34 34 33
39 38 38 38 38 39 39 39 38 38 39 39 40 41 42 42 43 43 43 43 42 42 42 41 41 41 41 41 41 41 40 40 39 39 38 38 38 38 38 37 37 36 36
40 40 40 40 40 40 40 40 40 40 39 40 40 41 42 42 43 45 45 45 45 44 43 43 43 43 43 43 43 43 42 42 41 40 40 39 40 40 40 40 40 39 39
42 42 42 42 42 42 41 41 41 41 41 41 41 41 42 42 43 45 45 46 46 46 45 44 44 45 45 46 45 45 45 44 44 42 42 41 41 41 42 43 42 41 41
42 42 42 43 43 42 43 42 42 42 42 42 42 42 42 43 44 45 46 47 47 48 47 46 46 47 48 47 47 47 47 47 46 45 45 44 43 43 43 43 44 43 43
41 42 42 42 43 44 44 44 43 43 43 43 43 43 43 44 45 46 46 47 48 49 49 49 48 48 48 48 49 48 48 48 48 47 47 46 46 45 45 44 45 45 44
42 43 43 43 43 44 44 44 45 45 44 44 42 42 43 44 45 46 47 47 48 49 51 51 50 50 49 49 50 49 49 49 49 49 49 48 47 47 46 46 46 46 45
41 42 43 42 43 44 45 45 45 45 45 44 44 44 44 45 45 46 47 48 49 49 50 50 51 51 51 51 51 51 50 50 50 50 49 49 48 47 47 47 46 46 46
43 44 44 43 43 44 45 46 46 46 46 46 46 45 45 46 46 46 47 48 49 50 50 50 51 52 52 51 51 51 50 49 50 49 49 49 48 47 48 48 48 48 48
42 42 44 44 43 44 45 46 47 48 47 47 46 47 46 46 47 47 47 48 49 50 50 50 50 50 50 50 50 50 50 49 48 47 48 48 47 48 48 48 49 50 50
41 42 42 42 43 44 45 46 46 46 47 47 46 45 45 47 47 47 47 47 47 48 48 47 47 48 48 49 49 50 50 49 49 48 47 48 48 49 49 49 49 50 49
40 40 41 41 42 43 44 45 45 46 46 46 46 46 46 46 47 48 48 47 46 45 45 45 45 46 47 47 48 49 50 50 50 49 48 48 49 49 49 49 49 49 49
40 40 40 40 41 41 43 44 44 44 44 45 45 45 45 46 46 46 46 46 45 43 43 43 45 45 46 47 48 49 50 50 51 51 50 48 47 47 48 49 49 48 48
Wind_Direction
250 251 252 253 254 255 256 257 258 258 258 258 259 260 260 261 263 266 271 273 275 274 274 276 277 275 273 271 270 272 273 269 269 269 268 270 272 271 271 274 277 277 278
250 252 253 254 255 256 256 257 257 257 258 259 260 260 260 262 265 267 269 271 273 272 272 273 273 273 273 270 268 270 269 268 268 269 268 268 269 271 272 274 278 279 280
252 253 254 255 256 256 258 258 258 257 258 259 260 261 262 263 266 268 268 269 270 270 270 271 270 270 270 269 267 265 264 266 268 269 268 267 267 269 271 274 276 278 280
254 255 254 255 256 257 258 258 258 258 258 259 261 262 263 264 266 268 269 271 270 269 269 268 268 267 267 267 265 262 261 264 266 268 267 267 267 269 271 273 275 277 278
255 256 256 256 257 258 259 259 258 258 259 260 261 262 263 265 266 268 269 269 270 270 268 267 266 266 265 264 263 261 260 262 265 266 267 267 268 269 270 272 275 276 277
255 255 256 256 257 258 259 260 259 259 260 261 262 262 263 264 265 267 268 268 268 269 268 267 266 264 264 265 263 262 261 260 263 264 266 267 268 269 270 271 273 276 277
255 255 256 257 257 258 258 259 259 260 260 261 262 263 263 264 265 267 268 268 267 267 266 266 266 264 263 263 263 262 263 261 261 262 264 265 267 269 270 271 273 275 277
256 256 256 257 256 257 258 258 259 260 261 261 262 262 263 264 264 266 267 268 267 267 266 264 264 264 263 262 262 262 262 261 260 261 263 265 267 268 270 271 273 275 276
257 257 257 257 257 257 257 258 259 260 261 261 261 262 263 263 263 264 265 266 266 266 264 263 263 263 264 263 262 262 262 262 261 260 262 264 266 267 269 271 273 274 275
257 257 257 257 257 257 257 257 258 259 260 261 261 262 263 263 263 263 263 263 264 265 264 263 262 262 263 263 262 262 262 263 263 262 262 264 266 267 268 270 272 273 275
257 256 257 257 257 258 257 258 258 259 260 261 262 262 263 263 263 262 262 263 264 264 264 264 263 262 262 262 263 262 263 264 264 264 263 264 265 267 267 269 270 272 274
256 257 258 258 258 258 259 259 260 260 261 262 262 262 263 263 263 262 262 263 264 264 264 263 263 262 262 262 263 262 263 264 265 265 265 266 266 266 267 268 269 271 273
256 257 258 258 258 258 259 260 261 261 262 263 263 263 263 262 262 261 262 263 264 264 264 263 263 262 262 262 262 262 263 264 266 266 266 266 267 267 267 267 269 270 272
256 257 258 259 259 259 259 260 262 263 263 264 265 264 263 262 262 261 262 262 263 263 263 263 262 262 262 262 262 262 263 264 265 266 267 267 267 267 267 267 268 269 271
257 257 257 259 260 260 261 261 262 264 265 265 265 265 263 262 262 261 261 262 262 262 262 262 263 263 263 263 263 263 264 264 265 266 266 267 267 267 268 268 269 269 271
256 257 258 259 260 261 261 261 262 264 265 267 266 265 264 262 262 261 261 261 261 261 261 262 262 262 262 262 263 263 263 263 264 266 266 268 269 268 268 269 270 270 271
257 258 259 259 261 260 261 262 262 263 265 266 266 265 264 264 263 263 263 262 262 262 262 262 262 262 261 261 262 263 264 264 264 265 266 268 268 268 269 269 270 270 270
258 258 259 259 260 260 260 262 262 263 265 266 267 266 265 266 265 265 265 264 263 262 262 262 262 262 262 262 262 263 263 263 263 263 265 267 268 269 270 270 270 270 271
259 259 259 259 259 259 260 262 263 263 264 266 266 266 265 267 267 266 265 265 264 263 263 262 262 262 262 262 262 262 263 263 263 263 264 265 267 269 269 270 270 270 271
259 260 260 260 259 259 260 262 264 264 265 265 265 267 267 268 268 268 266 265 265 264 263 262 262 261 262 262 262 262 262 263 263 263 263 264 265 267 268 269 270 270 271
260 261 262 261 260 260 261 263 264 265 265 265 266 267 268 269 267 267 267 266 265 264 264 263 262 261 262 262 262 262 262 263 263 263 263 263 264 265 267 268 269 270 271
263 264 264 264 264 263 263 264 264 265 265 265 266 267 269 270 269 269 268 268 267 264 264 263 262 262 262 262 262 261 260 260 260 261 261 262 263 265 266 268 268 269 272
264 265 266 266 266 266 265 265 265 265 266 267 267 268 269 269 270 269 269 270 268 265 263 262 262 261 260 261 262 262 261 260 258 259 260 261 263 264 267 268 268 269 271
265 266 267 268 268 268 267 265 266 266 266 266 266 267 268 269 269 270 270 269 267 266 264 262 261 261 260 260 260 262 262 261 259 259 259 261 263 264 266 268 269 270 270
266 266 267 269 269 269 269 266 266 268 267 266 266 267 268 269 269 269 269 268 267 265 263 262 262 261 261 262 262 262 262 262 262 261 261 262 262 263 265 267 268 268 269
266 266 268 268 269 270 270 269 267 268 268 268 267 267 268 269 269 270 268 266 266 264 262 262 263 263 263 264 264 264 265 264 263 263 263 263 263 264 265 267 267 268 269